This demonstration page uses our WeatherBlox Daily Observations layout. Learn more.

Left ArrowRight Arrow

36.17497, -115.13722

Hourly Observations for April 21, 2016

Temp ( °F °C ) Dew Point ( °F °C ) Humidity (%) Winds ( mph kmh ) Pressure ( in mb ) Visibility ( mi km ) Precip ( " mm )
12:53 am 00:53 Clear 68 20 20 -6.7 16 16 NW 8 13 29.86 1011 10 16.0934 0 0
1:53 am 01:53 Clear 64 17.8 22 -5.6 20 20 NNW 7 11 29.85 1011 10 16.0934 0 0
2:53 am 02:53 Clear 63 17.2 22 -5.6 21 21 NW 6 9 29.85 1011 10 16.0934 0 0
3:53 am 03:53 Clear 63 17.2 22 -5.6 21 21 NW 5 7 29.86 1011 10 16.0934 0 0
4:53 am 04:53 Clear 62 16.7 22 -5.6 21 21 NW 6 9 29.86 1011 10 16.0934 0 0
5:53 am 05:53 Clear 61 16.1 23 -5 23 23 NNW 5 7 29.87 1012 10 16.0934 0 0
6:53 am 06:53 Sunny 62 16.7 23 -5 22 22 NW 6 9 29.89 1012 10 16.0934 0 0
7:53 am 07:53 Sunny 67 19.4 23 -5 19 19 N 5 7 29.9 1013 10 16.0934 0 0
8:53 am 08:53 Sunny 73 22.8 21 -6.1 14 14 Calm 29.91 1013 10 16.0934 0 0
9:53 am 09:53 Sunny 77 25 20 -6.7 12 12 E 7 11 29.91 1013 10 16.0934 0 0
10:53 am 10:53 Sunny 80 26.7 21 -6.1 11 11 SSE 8 13 29.91 1013 10 16.0934 0 0
11:53 am 11:53 Sunny 82 27.8 21 -6.1 10 10 SSE 6 9 29.89 1012 10 16.0934 0 0
12:53 pm 12:53 Sunny 85 29.4 22 -5.6 10 10 SE 12 19 29.86 1011 10 16.0934 0 0
1:53 pm 13:53 Sunny 87 30.6 19 -7.2 8 8 SSE 13 20 29.84 1011 10 16.0934 0 0
2:53 pm 14:53 Sunny 89 31.7 20 -6.7 8 8 SE 13 20 29.81 1010 10 16.0934 0 0
3:53 pm 15:53 Sunny 88 31.1 20 -6.7 8 8 E 15 24 29.78 1009 10 16.0934 0 0
4:53 pm 16:53 Sunny 90 32.2 16 -8.9 6 6 S 9 15 29.76 1008 10 16.0934 0 0
5:53 pm 17:53 Sunny 89 31.7 17 -8.3 7 7 SW 14 22 29.76 1008 10 16.0934 0 0
6:53 pm 18:53 Sunny 87 30.6 16 -8.9 7 7 SW 14 22 29.76 1008 10 16.0934 0 0
7:53 pm 19:53 Clear 84 28.9 17 -8.3 8 8 S 12 19 29.78 1008 10 16.0934 0 0
8:53 pm 20:53 Clear 82 27.8 16 -8.9 8 8 S 12 19 29.79 1009 10 16.0934 0 0
9:53 pm 21:53 Clear 79 26.1 17 -8.3 10 10 SW 9 15 29.8 1009 10 16.0934 0 0
10:53 pm 22:53 Clear 76 24.4 20 -6.7 12 12 S 5 7 29.8 1009 10 16.0934 0 0
11:53 pm 23:53 Clear 72 22.2 21 -6.1 15 15 S 5 7 29.8 1009 10 16.0934 0 0

Powered by AerisWeather